Вернуться в каталог

DELTA 1 DEB

АктивенUNKNOWN
NORAD 12536·DEBRIS·🇺🇸 United States

Запущен Jul 29, 1976 с Vandenberg Space Force Base

Loading…

Ближайшие Пролёты (ближайшие 24 часа)

TLE

СвежийSource: Space-Track

Эпоха: Sep 14, 2026, 10:49 UTC

1 12536U 76077DR  26257.45071854 -.00002908  00000-0 -31653-1 0  9990
2 12536 101.7686 337.3362 0517239  64.3169 359.5333 11.80127813 64408

Отслеживайте DELTA 1 DEB в реальном времени с AllMySat

Download on the App Store